, LA

(GMT )
Salt Point

Weather History for KP92 - October, 2012

Change the Weather History Date:

Sunday, October 14, 2012

  Actual Average Record
Temperature  
Mean Temperature 80 °F -  
Max Temperature 86 °F 77 °F 88 °F (2013)
Min Temperature 77 °F 61 °F 55 °F (2004)
Cooling Degree Days 16    
Growing Degree Days 30 (Base 50)    
Moisture  
Dew Point 73 °F    
Average Humidity 77    
Maximum Humidity 90    
Minimum Humidity 65    
Precipitation  
Precipitation 0.00 in - - ()
Sea Level Pressure  
Sea Level Pressure 30.04 in    
Wind  
Wind Speed 3 mph (SSE)    
Max Wind Speed 6 mph    
Max Gust Speed -    
Averages and records for this station are not official NWS values.
T = Trace of Precipitation, MM = Missing Value Source: NWS Daily Summary

Daily Weather History Graph

Daily Weather History Graph

Search for Another Location

Airport or City:

Trip Planner

Search our weather history database for the weather conditions in past years. The results will help you decide how hot, cold, wet, or windy it might be!

Date:

Astronomy

Oct. 14, 2012 Rise Set
Actual Time 7:06 AM CDT 6:35 PM CDT
Civil Twilight 6:42 AM CDT 6:59 PM CDT
Nautical Twilight 6:14 AM CDT 7:26 PM CDT
Astronomical Twilight 5:47 AM CDT 7:54 PM CDT
Moon 6:07 AM CDT (10/14) 5:56 PM CDT (10/14)
Length of Visible Light 12h 16m
Length of Day
11h 28m
Waning Crescent, 1% of the Moon is Illuminated
Oct 14
Waning Crescent
Oct 15
New
Oct 21
First Quarter
Oct 29
Full
Nov 6
Last Quarter

Hourly Weather History & Observations

Time (CDT) Temp. Heat Index Dew Point Humidity Pressure Visibility Wind Dir Wind Speed Gust Speed Precip Events Conditions
12:53 AM 78.1 °F - 73.9 °F 87% 30.06 in - SE 4.6 mph - N/A   Unknown
1:53 AM 77.0 °F - 73.9 °F 90% 30.06 in - Variable 3.5 mph - N/A   Unknown
2:53 AM 78.1 °F - 73.0 °F 84% 30.04 in - SE 3.5 mph - N/A   Unknown
3:53 AM 78.1 °F - 73.0 °F 84% 30.02 in - Variable 4.6 mph - N/A   Unknown
4:53 AM 78.1 °F - 73.0 °F 84% 30.02 in - Variable 4.6 mph - N/A   Unknown
5:53 AM 78.1 °F - 73.0 °F 84% 30.03 in - Variable 3.5 mph - N/A   Unknown
6:53 AM 78.1 °F - 72.0 °F 81% 30.04 in - Variable 3.5 mph - N/A   Unknown
7:53 AM 78.1 °F - 73.0 °F 84% 30.06 in - Calm Calm - N/A   Unknown
8:53 AM 81.0 °F 86.2 °F 73.9 °F 79% 30.09 in - Variable 3.5 mph - N/A   Unknown
9:53 AM 82.9 °F 88.8 °F 73.0 °F 72% 30.11 in - Variable 3.5 mph - N/A   Unknown
10:53 AM 82.9 °F 88.0 °F 72.0 °F 69% 30.12 in - Calm Calm - N/A   Unknown
11:53 AM 84.0 °F 89.6 °F 72.0 °F 67% 30.12 in - Variable 3.5 mph - N/A   Unknown
12:53 PM 84.0 °F 89.6 °F 72.0 °F 67% 30.10 in - WSW 5.8 mph - N/A   Unknown
1:53 PM 84.0 °F 89.0 °F 71.1 °F 65% 30.04 in - Variable 5.8 mph - N/A   Unknown
2:53 PM 84.0 °F 89.0 °F 71.1 °F 65% 30.01 in - Variable 4.6 mph - N/A   Unknown
3:53 PM 84.0 °F 89.6 °F 72.0 °F 67% 30.00 in - Variable 5.8 mph - N/A   Unknown
4:53 PM 82.9 °F 88.0 °F 72.0 °F 69% 30.01 in - Variable 4.6 mph - N/A   Unknown
5:53 PM 82.0 °F 86.7 °F 72.0 °F 71% 30.01 in - Calm Calm - N/A   Unknown
6:53 PM 80.1 °F 83.8 °F 72.0 °F 76% 30.01 in - Calm Calm - N/A   Unknown
7:53 PM 80.1 °F 84.2 °F 73.0 °F 79% 30.01 in - Variable 3.5 mph - N/A   Unknown
8:53 PM 79.0 °F - 73.0 °F 82% 30.02 in - Calm Calm - N/A   Unknown
9:53 PM 78.1 °F - 73.0 °F 84% 30.02 in - Calm Calm - N/A   Unknown
10:53 PM 79.0 °F - 73.0 °F 82% 30.02 in - Calm Calm - N/A   Unknown
11:53 PM 79.0 °F - 73.9 °F 84% 30.00 in - Calm Calm - N/A   Unknown